#timestamp,LO_Frequency,Hit,StdDev 
1502949615.2,286046996.7,P,0.6
1502949635.1,286046997.3,P,0.5
1502949636.0,286046997.3,P,0.4
1502949655.8,286046997.7,Y,0.0
1502949675.6,286046998.2,P,0.4
1502949695.5,286047001.1,N,1.6
1502949715.3,286046999.0,N,1.4
1502949735.1,286046998.7,N,1.3
1502949755.9,286046998.5,N,1.2
1502949775.7,286046998.6,N,1.1
1502949795.6,286046999.0,N,1.0
1502949815.4,286046998.7,N,0.9
1502949835.2,286046998.6,N,0.9
1502949855.1,286047001.2,N,1.1
1502949856.0,286047001.2,N,1.2
1502949875.8,286046998.1,N,1.2
1502949895.7,286047001.1,N,1.3
1502949915.5,286046998.9,N,1.2
1502949935.3,286046999.2,N,1.2
1502949955.2,286046997.1,N,1.3
1502949975.0,286046996.5,N,1.4
1502949975.9,286046996.5,N,1.4
1502949995.7,286046996.8,N,1.5
1502950015.6,286046999.6,N,1.4
1502950035.4,286046999.6,N,1.4
1502950055.3,286047011.9,Y,0.0
1502950075.1,286046998.3,P,0.2
1502950095.8,286046999.0,P,0.3
1502950115.7,286046998.8,P,0.3
1502950135.5,286046999.2,Y,0.0
1502950155.4,286046998.5,P,0.1
1502950175.2,286046998.1,P,0.3
1502950195.0,286046998.3,P,0.2
1502950195.9,286046998.3,Y,0.0
1502950215.8,286047002.6,P,2.1
1502950235.6,286047000.0,N,1.7
1502950255.5,286046998.2,N,1.8
1502950275.3,286046998.3,N,1.7
1502950295.1,286046999.3,N,1.5
1502950315.9,286046998.4,N,1.5
1502950335.7,286046998.9,N,1.4
1502950355.6,286046996.5,N,1.6
1502950375.4,286046996.6,N,1.6
1502950395.2,286046999.4,N,1.6
1502950415.1,286046999.3,N,1.5
1502950416.0,286046999.3,N,1.5
1502950435.8,286046997.1,N,1.5
1502950455.7,286046999.2,N,1.4
1502950475.5,286046998.6,N,1.4
1502950495.3,286046999.0,N,1.4
1502950515.2,286046998.4,N,1.3
1502950535.0,286046998.7,N,1.3
1502950535.9,286046998.7,N,1.3
1502950555.7,286047001.0,N,1.3
1502950575.6,286047000.4,N,1.3
1502950595.4,286047000.4,N,1.3
1502950615.3,286047000.4,N,1.3
1502950635.1,286047000.0,N,1.3
1502950636.0,286047000.0,N,1.3
1502950655.8,286047002.8,N,1.5
1502950675.7,286047002.1,N,1.5
1502950695.5,286047001.6,N,1.6
1502950715.4,286047002.5,N,1.6
1502950735.2,286047002.7,N,1.7
1502950755.0,286047001.3,N,1.6
1502950755.9,286047001.3,N,1.7
1502950775.8,286047001.8,N,1.7
1502950795.6,286047004.3,N,1.8
1502950815.4,286047003.6,N,2.0
1502950835.3,286047003.8,N,2.0
1502950855.1,286047003.4,N,2.1
1502950875.9,286047003.8,N,2.0
1502950895.7,286047003.6,N,1.9
1502950915.5,286047003.5,N,2.0
1502950935.4,286047004.0,N,2.0
1502950955.2,286047004.2,N,2.0
1502950975.0,286047003.2,N,1.9
1502950975.9,286047003.2,N,1.9
1502950995.8,286047003.2,N,1.8
1502951015.6,286047003.7,N,1.7
1502951035.4,286047003.5,N,1.6
1502951055.3,286047003.3,N,1.5
1502951075.1,286047005.9,Y,0.0
1502951095.9,286047002.0,P,0.2
1502951115.7,286047001.9,P,0.2
1502951135.5,286047001.5,P,0.3
1502951155.4,286047001.8,Y,0.0
1502951175.2,286047000.5,P,0.7
1502951195.0,286047000.1,N,0.8
1502951195.9,286047000.1,N,0.8
1502951215.8,286047000.4,N,0.7
1502951235.6,286046999.8,N,0.7
1502951255.4,286047002.7,Y,0.0
1502951275.3,286047000.1,P,0.2
1502951295.1,286047002.5,P,1.1
1502951315.8,286047002.7,N,1.2
1502951335.7,286047002.1,N,1.1
1502951355.5,286047002.5,N,1.0
1502951375.3,286047001.4,N,1.0
1502951395.2,286047001.4,N,0.9
1502951415.0,286047004.4,Y,0.0
1502951415.9,286047004.4,P,1.4
1502951435.7,286047002.4,N,1.2
1502951455.6,286047001.5,N,1.2
1502951475.4,286047002.7,N,1.0
1502951495.2,286047002.8,N,1.0
1502951515.1,286047001.5,N,1.0
1502951516.0,286047001.5,N,0.9
1502951535.8,286047001.6,N,0.9
1502951555.6,286047001.8,N,0.9
1502951575.5,286047001.4,N,0.9
1502951595.3,286047001.4,N,0.9
1502951615.2,286047001.4,N,0.8
1502951635.9,286047001.4,N,0.8
1502951655.7,286047004.2,Y,0.0
1502951675.6,286047002.0,P,0.0
1502951695.4,286047002.7,P,0.3
1502951715.2,286047002.7,P,0.4
1502951735.1,286047002.6,Y,0.0
1502951736.0,286047002.6,P,0.1
1502951755.8,286046998.1,P,2.1
1502951775.6,286047000.9,N,1.8
1502951795.5,286047000.0,N,1.6
1502951815.3,286047001.0,N,1.5
1502951835.1,286047000.4,N,1.4
1502951855.9,286047000.6,N,1.3
1502951875.7,286047000.9,N,1.2
1502951895.5,286047000.8,N,1.2
1502951915.4,286047000.7,N,1.1
1502951935.2,286046999.9,N,1.1
1502951955.0,286047000.6,N,1.1
1502951955.9,286047000.6,N,1.0
1502951975.8,286046999.9,N,1.0
1502951995.6,286047000.3,N,1.0
1502952015.4,286046999.7,N,1.0
1502952035.3,286047000.2,N,0.9
1502952055.1,286047000.0,N,0.9
1502952075.8,286047000.2,N,0.9
1502952095.7,286047000.6,N,0.9
1502952115.5,286047000.5,N,0.9
1502952135.3,286046999.7,N,0.9
1502952155.2,286047002.7,Y,0.0
1502952175.0,286047000.2,P,0.1
1502952175.9,286047000.2,N,0.1
1502952195.8,286047000.1,N,0.1
1502952215.6,286047000.1,N,0.1
1502952235.4,286047000.1,N,0.1
1502952255.3,286046999.9,N,0.2
1502952275.1,286047000.5,Y,0.0
1502952276.0,286047000.5,P,0.2
1502952295.8,286047001.0,P,0.3
1502952315.7,286047000.9,N,0.3
1502952335.5,286047001.1,Y,0.0
1502952355.3,286046998.5,P,1.1
1502952375.2,286047000.7,N,1.0
1502952395.9,286047001.0,N,1.0
1502952415.7,286046999.7,N,0.9
1502952435.6,286047002.7,N,1.3
1502952455.4,286047002.7,N,1.4
1502952475.2,286047002.8,N,1.5
1502952495.1,286047000.0,N,1.4
1502952496.0,286047000.0,N,1.4
1502952515.8,286046999.8,N,1.4
1502952535.6,286047000.1,N,1.3
1502952555.5,286047000.2,N,1.3
1502952575.3,286047002.7,N,1.3
1502952595.1,286047002.4,N,1.3
1502952615.9,286047002.6,N,1.4
1502952635.7,286047002.5,N,1.4
1502952655.5,286047002.4,N,1.4
1502952675.4,286047001.9,N,1.3
1502952695.2,286047002.1,N,1.3
1502952715.0,286047002.1,N,1.3
1502952716.0,286047002.1,N,1.3
1502952735.8,286047002.1,N,1.3
1502952755.6,286047002.0,N,1.2
1502952775.5,286047002.7,N,1.2
1502952795.3,286046999.7,N,1.3
1502952815.1,286047002.1,N,1.2
1502952835.9,286047001.3,N,1.2
1502952855.7,286047001.4,N,1.2
1502952875.5,286047004.3,Y,0.0
1502952895.4,286047000.2,P,0.6
1502952915.2,286047000.6,N,0.5
1502952935.0,286046999.9,N,0.6
1502952935.9,286046999.9,N,0.6
1502952955.8,286047000.5,N,0.5
1502952975.6,286047002.8,Y,0.0
1502952995.4,286046999.9,P,0.3
1502953015.3,286047000.3,N,0.2
1502953035.1,286047000.0,N,0.2
1502953036.0,286047000.0,N,0.2
1502953055.8,286047000.9,Y,0.0
1502953075.7,286047000.8,P,0.3
1502953095.5,286047001.2,P,0.4
1502953115.3,286047000.5,N,0.4
1502953135.2,286047001.0,N,0.4
1502953155.0,286047000.1,N,0.4
1502953155.9,286047000.1,N,0.4
1502953175.7,286047001.0,N,0.4
1502953195.6,286047000.9,N,0.4
